Location: Tauranga
(37.6860°S, 176.1670°E)
Time: 00:03:01
(UTC+13:00)

Resurs 01 Rocket - Pass Details

Date: 24 January 2019
Orbit: 635 x 643 km, 98.1° (Epoch: 22 February)

Event Time Altitude Azimuth Distance (km) Brightness Sun altitude
Rises 23:13:24 0° 183° (S) 2,976 5.9 -25.0°
Reaches altitude 10° 23:16:00 10° 197° (SSW) 2,057 5.2 -25.2°
Maximum altitude 23:19:29 23° 248° (WSW) 1,383 3.9 -25.6°
Drops below altitude 10° 23:22:56 10° 299° (WNW) 2,034 4.2 -26.0°
Enters shadow 23:23:18 - 302° (WNW) 2,148 4.3 -26.0°
